Location: Csohesd
(46.2500°N, 22.6167°E)
Time: 13:27:51
(UTC+00:00)

Cosmos 304 Rocket - Pass Details

Date: 21 October 2021
Orbit: 678 x 688 km, 74.0° (Epoch: 06 December)

Event Time Altitude Azimuth Distance (km) Brightness Sun altitude
Rises 17:05:51 0° 186° (S) 3,022 7.1 -16.8°
Reaches altitude 10° 17:08:11 10° 181° (S) 2,113 6.3 -17.2°
Maximum altitude 17:12:47 51° 106° (ESE) 856 3.8 -18.0°
Enters shadow 17:16:21 17° 35° (NE) 1,729 5.5 -18.6°
